Back to catalog

FENGYUN 1C DEB

AliveSSO
NORAD 30941·DEBRIS·🇨🇳 China

Launched May 10, 1999 from Taiyuan Satellite Launch Center

Loading…

Next Passes (next 24 hours)

TLE

FreshSource: Space-Track

Epoch: Sep 11, 2026, 01:34 UTC

1 30941U 99025BAF 26254.06584541  .00002430  00000-0  89532-3 0  9993
2 30941  98.5317 111.7919 0029879 231.2512 128.6002 14.33225800  5206

Track FENGYUN 1C DEB in real time with AllMySat

Download on the App Store